"Period start","avg(HW err(1)/warn(2) (#))","avg(Visibility (m))","avg(Weather code (#))","avg(Precip intensity (mm/h))","min(HW err(1)/warn(2) (#))","max(HW err(1)/warn(2) (#))","std(HW err(1)/warn(2) (#))","med(HW err(1)/warn(2) (#))","min(Visibility (m))","max(Visibility (m))","std(Visibility (m))","med(Visibility (m))","min(Weather code (#))","max(Weather code (#))","std(Weather code (#))","med(Weather code (#))","min(Precip intensity (mm/h))","max(Precip intensity (mm/h))","std(Precip intensity (mm/h))","med(Precip intensity (mm/h))"
2016-05-04 00:00:00,2,40018,0,0.00,2,2,0,2,31222,49893,7109,40556,0,0,0,0,0.00,0.00,0.00,0.00
2016-05-04 00:10:00,2,39798,0,0.00,2,2,0,2,26931,47047,6248,41692,0,0,0,0,0.00,0.00,0.00,0.00
2016-05-04 00:20:00,2,18352,42,0.01,2,2,0,2,14728,22125,2738,18844,0,77,31,40,0.00,0.05,0.02,0.00
2016-05-04 00:30:00,2,28102,37,0.00,2,2,0,2,9708,42672,11643,30644,0,77,37,36,0.00,0.00,0.00,0.00
2016-05-04 00:40:00,2,31472,0,0.00,2,2,0,2,18966,38833,5444,33682,0,0,0,0,0.00,0.00,0.00,0.00
2016-05-04 00:50:00,2,24379,0,0.00,2,2,0,2,16185,38820,6191,23962,0,0,0,0,0.00,0.00,0.00,0.00
2016-05-04 01:00:00,2,28074,0,0.00,2,2,0,2,23390,32208,2777,27724,0,0,0,0,0.00,0.00,0.00,0.00
2016-05-04 01:10:00,2,26804,0,0.00,2,2,0,2,20194,35891,4825,25210,0,0,0,0,0.00,0.00,0.00,0.00
2016-05-04 01:20:00,2,26815,0,0.00,2,2,0,2,19291,36934,4477,26472,0,0,0,0,0.00,0.00,0.00,0.00
2016-05-04 01:30:00,2,30268,0,0.00,2,2,0,2,25015,39758,3964,29570,0,0,0,0,0.00,0.00,0.00,0.00
2016-05-04 01:40:00,2,27575,0,0.00,2,2,0,2,21588,35872,4862,26049,0,0,0,0,0.00,0.00,0.00,0.00
2016-05-04 01:50:00,2,29189,0,0.00,2,2,0,2,22370,38860,5646,27672,0,0,0,0,0.00,0.00,0.00,0.00
2016-05-04 02:00:00,2,28666,0,0.00,2,2,0,2,25473,34129,2486,28214,0,0,0,0,0.00,0.00,0.00,0.00
2016-05-04 02:10:00,2,30056,0,0.00,2,2,0,2,23466,39727,5072,30632,0,0,0,0,0.00,0.00,0.00,0.00
2016-05-04 02:20:00,2,33250,0,0.00,2,2,0,2,25900,43893,6190,31612,0,0,0,0,0.00,0.00,0.00,0.00
2016-05-04 02:30:00,2,30842,0,0.00,2,2,0,2,22101,42675,7260,31327,0,0,0,0,0.00,0.00,0.00,0.00
2016-05-04 02:40:00,2,32085,0,0.00,2,2,0,2,21803,41681,5403,30496,0,0,0,0,0.00,0.00,0.00,0.00
2016-05-04 02:50:00,2,36372,0,0.00,2,2,0,2,26228,44176,5831,38284,0,0,0,0,0.00,0.00,0.00,0.00
2016-05-04 03:00:00,2,27773,0,0.00,2,2,0,2,22732,40309,4968,25639,0,0,0,0,0.00,0.00,0.00,0.00
2016-05-04 03:10:00,2,31973,0,0.00,2,2,0,2,23424,43296,6924,30830,0,0,0,0,0.00,0.00,0.00,0.00
2016-05-04 03:20:00,2,28268,0,0.00,2,2,0,2,19985,40332,6541,28012,0,0,0,0,0.00,0.00,0.00,0.00
2016-05-04 03:30:00,2,28209,0,0.00,2,2,0,2,21307,43572,6027,26118,0,0,0,0,0.00,0.00,0.00,0.00
2016-05-04 03:40:00,2,33721,0,0.00,2,2,0,2,27254,43726,4232,33704,0,0,0,0,0.00,0.00,0.00,0.00
2016-05-04 03:50:00,2,32286,0,0.00,2,2,0,2,27027,38253,3566,33312,0,0,0,0,0.00,0.00,0.00,0.00
2016-05-04 04:00:00,2,30910,0,0.00,2,2,0,2,21971,44733,7177,27916,0,0,0,0,0.00,0.00,0.00,0.00
2016-05-04 04:10:00,2,33729,0,0.00,2,2,0,2,22772,48415,7737,32212,0,0,0,0,0.00,0.00,0.00,0.00
2016-05-04 04:20:00,2,22543,0,0.00,2,2,0,2,12082,31821,4800,22758,0,0,0,0,0.00,0.00,0.00,0.00
2016-05-04 04:30:00,2,12479,0,0.00,2,2,0,2,7146,18038,3442,12892,0,0,0,0,0.00,0.00,0.00,0.00
2016-05-04 04:40:00,2,6412,7,0.00,2,2,0,2,3852,10097,1686,5978,0,10,5,10,0.00,0.00,0.00,0.00
2016-05-04 04:50:00,2,6382,10,0.00,2,2,0,2,4036,9052,1483,6335,10,10,0,10,0.00,0.00,0.00,0.00
2016-05-04 05:00:00,2,8181,10,0.00,2,2,0,2,5431,10872,1561,8422,10,10,0,10,0.00,0.00,0.00,0.00
2016-05-04 05:10:00,2,7793,10,0.00,2,2,0,2,6381,10230,1052,7717,10,10,0,10,0.00,0.00,0.00,0.00
2016-05-04 05:20:00,2,11624,10,0.00,2,2,0,2,8631,14169,1559,11678,10,10,0,10,0.00,0.00,0.00,0.00
2016-05-04 05:30:00,2,13161,2,0.00,2,2,0,2,11022,16397,1835,13100,0,10,4,0,0.00,0.00,0.00,0.00
2016-05-04 05:40:00,2,13610,0,0.00,2,2,0,2,11441,15513,1313,13868,0,0,0,0,0.00,0.00,0.00,0.00
2016-05-04 05:50:00,2,11829,0,0.00,2,2,0,2,10082,15301,1528,11296,0,0,0,0,0.00,0.00,0.00,0.00
2016-05-04 06:00:00,2,9305,0,0.00,2,2,0,2,8482,10034,541,9476,0,0,0,0,0.00,0.00,0.00,0.00
2016-05-04 06:10:00,2,10756,0,0.00,2,2,0,2,8975,12481,1120,10951,0,0,0,0,0.00,0.00,0.00,0.00
2016-05-04 06:20:00,2,12145,0,0.00,2,2,0,2,10050,14640,1600,12043,0,0,0,0,0.00,0.00,0.00,0.00
2016-05-04 06:30:00,2,14176,0,0.00,2,2,0,2,12352,17029,1569,13678,0,0,0,0,0.00,0.00,0.00,0.00
2016-05-04 06:40:00,2,16842,0,0.00,2,2,0,2,13571,20629,1921,16376,0,0,0,0,0.00,0.00,0.00,0.00
2016-05-04 06:50:00,2,19387,0,0.00,2,2,0,2,15304,23627,2581,19600,0,0,0,0,0.00,0.00,0.00,0.00
2016-05-04 07:00:00,2,21470,0,0.00,2,2,0,2,17016,28790,3875,20589,0,0,0,0,0.00,0.00,0.00,0.00
2016-05-04 07:10:00,2,33547,0,0.00,2,2,0,2,24796,45245,5862,32544,0,0,0,0,0.00,0.00,0.00,0.00
2016-05-04 07:20:00,2,27286,0,0.00,2,2,0,2,16636,41764,6787,26437,0,0,0,0,0.00,0.00,0.00,0.00
2016-05-04 07:30:00,2,30538,0,0.00,2,2,0,2,25113,38757,3671,29810,0,0,0,0,0.00,0.00,0.00,0.00
2016-05-04 07:40:00,2,36988,0,0.00,2,2,0,2,28604,45939,5902,35975,0,0,0,0,0.00,0.00,0.00,0.00
2016-05-04 07:50:00,2,36131,0,0.00,2,2,0,2,24712,49960,7710,37704,0,0,0,0,0.00,0.00,0.00,0.00
2016-05-04 08:00:00,2,37822,0,0.00,2,2,0,2,25897,50000,8516,34971,0,0,0,0,0.00,0.00,0.00,0.00
2016-05-04 08:10:00,2,42104,0,0.00,2,2,0,2,28340,50000,8025,44901,0,0,0,0,0.00,0.00,0.00,0.00
2016-05-04 08:20:00,2,45599,0,0.00,2,2,0,2,39911,50000,3340,44908,0,0,0,0,0.00,0.00,0.00,0.00
2016-05-04 08:30:00,2,45770,0,0.00,2,2,0,2,33821,50000,4860,46742,0,0,0,0,0.00,0.00,0.00,0.00
2016-05-04 08:40:00,2,46805,0,0.00,2,2,0,2,34680,50000,4452,48702,0,0,0,0,0.00,0.00,0.00,0.00
2016-05-04 08:50:00,2,45696,0,0.00,2,2,0,2,39627,50000,3671,46310,0,0,0,0,0.00,0.00,0.00,0.00
2016-05-04 09:00:00,2,47867,0,0.00,2,2,0,2,41586,50000,2794,49288,0,0,0,0,0.00,0.00,0.00,0.00
2016-05-04 09:10:00,2,46046,0,0.00,2,2,0,2,36530,50000,4353,47641,0,0,0,0,0.00,0.00,0.00,0.00
2016-05-04 09:20:00,2,46234,0,0.00,2,2,0,2,37872,50000,4015,47788,0,0,0,0,0.00,0.00,0.00,0.00
2016-05-04 09:30:00,2,47408,0,0.00,2,2,0,2,39981,50000,3319,49200,0,0,0,0,0.00,0.00,0.00,0.00
2016-05-04 09:40:00,2,45528,0,0.00,2,2,0,2,37922,50000,4262,45954,0,0,0,0,0.00,0.00,0.00,0.00
2016-05-04 09:50:00,2,45561,0,0.00,2,2,0,2,38094,50000,4352,45896,0,0,0,0,0.00,0.00,0.00,0.00
2016-05-04 10:00:00,2,39413,37,0.01,2,2,0,2,28959,46468,5202,40041,0,78,37,36,0.00,0.05,0.02,0.00
2016-05-04 10:10:00,2,44620,0,0.00,2,2,0,2,38201,49202,3863,45136,0,0,0,0,0.00,0.00,0.00,0.00
2016-05-04 10:20:00,2,46238,0,0.00,2,2,0,2,35601,50000,4870,49186,0,0,0,0,0.00,0.00,0.00,0.00
2016-05-04 10:30:00,2,46776,0,0.00,2,2,0,2,43723,50000,2084,46968,0,0,0,0,0.00,0.00,0.00,0.00
2016-05-04 10:40:00,2,39605,0,0.00,2,2,0,2,31225,50000,6313,37944,0,0,0,0,0.00,0.00,0.00,0.00
2016-05-04 10:50:00,2,42445,0,0.00,2,2,0,2,35720,48154,3724,43500,0,0,0,0,0.00,0.00,0.00,0.00
2016-05-04 11:00:00,2,45687,0,0.00,2,2,0,2,40026,50000,2956,46114,0,0,0,0,0.00,0.00,0.00,0.00
2016-05-04 11:10:00,2,43636,0,0.00,2,2,0,2,40622,46276,1456,43922,0,0,0,0,0.00,0.00,0.00,0.00
2016-05-04 11:20:00,2,37819,0,0.00,2,2,0,2,32561,42813,3275,38243,0,0,0,0,0.00,0.00,0.00,0.00
2016-05-04 11:30:00,2,27537,0,0.00,2,2,0,2,22943,33347,2603,27420,0,0,0,0,0.00,0.00,0.00,0.00
2016-05-04 11:40:00,2,27661,0,0.00,2,2,0,2,25235,31839,2122,27211,0,0,0,0,0.00,0.00,0.00,0.00
2016-05-04 11:50:00,2,25103,0,0.00,2,2,0,2,19128,30978,3113,26168,0,0,0,0,0.00,0.00,0.00,0.00
2016-05-04 12:00:00,2,35968,0,0.00,2,2,0,2,29285,44713,4652,35786,0,0,0,0,0.00,0.00,0.00,0.00
2016-05-04 12:10:00,2,23068,0,0.00,2,2,0,2,20776,27507,2076,22273,0,0,0,0,0.00,0.00,0.00,0.00
2016-05-04 12:20:00,2,26443,0,0.00,2,2,0,2,23626,29725,1818,25976,0,0,0,0,0.00,0.00,0.00,0.00
2016-05-04 12:30:00,2,26688,0,0.00,2,2,0,2,20361,34172,3728,26456,0,0,0,0,0.00,0.00,0.00,0.00
2016-05-04 12:40:00,2,24225,0,0.00,2,2,0,2,22520,26924,1340,24638,0,0,0,0,0.00,0.00,0.00,0.00
2016-05-04 12:50:00,2,29045,0,0.00,2,2,0,2,25154,34033,2772,28870,0,0,0,0,0.00,0.00,0.00,0.00
2016-05-04 13:00:00,2,28018,0,0.00,2,2,0,2,24149,31247,2516,27884,0,0,0,0,0.00,0.00,0.00,0.00
2016-05-04 13:10:00,2,39615,0,0.00,2,2,0,2,32854,50000,5570,37370,0,0,0,0,0.00,0.00,0.00,0.00
2016-05-04 13:20:00,2,33917,0,0.00,2,2,0,2,23843,45485,7650,34718,0,0,0,0,0.00,0.00,0.00,0.00
2016-05-04 13:30:00,2,23182,0,0.00,2,2,0,2,18486,29470,2994,22926,0,0,0,0,0.00,0.00,0.00,0.00
2016-05-04 13:40:00,2,19526,14,0.00,2,2,0,2,15371,29418,4316,17476,0,71,28,0,0.00,0.00,0.00,0.00
2016-05-04 13:50:00,2,13627,73,0.15,2,2,0,2,10963,16410,1719,13330,71,77,3,71,0.00,0.50,0.18,0.08
2016-05-04 14:00:00,2,9017,71,0.12,2,2,0,2,5861,10903,1561,9438,71,71,0,71,0.00,0.35,0.13,0.05
2016-05-04 14:10:00,2,8552,71,0.33,2,2,0,2,7164,10400,1119,8320,71,71,0,71,0.05,0.85,0.25,0.28
2016-05-04 14:20:00,2,9995,71,0.07,2,2,0,2,8621,11730,1087,9914,71,71,0,71,0.00,0.20,0.06,0.05
2016-05-04 14:30:00,2,7969,73,0.12,2,2,0,2,6129,9502,1074,7703,71,77,3,71,0.05,0.20,0.04,0.10
2016-05-04 14:40:00,2,11912,77,0.05,2,2,0,2,9151,19500,3510,10068,77,78,0,77,0.00,0.10,0.03,0.05
2016-05-04 14:50:00,2,14333,78,0.04,2,2,0,2,9546,15838,1891,15041,78,78,0,78,0.00,0.20,0.06,0.05
2016-05-04 15:00:00,2,11630,74,0.06,2,2,0,2,10165,12702,721,11775,71,78,3,74,0.05,0.10,0.02,0.05
2016-05-04 15:10:00,2,8515,77,0.11,2,2,0,2,5920,10664,1702,8982,77,77,0,77,0.00,0.25,0.08,0.08
2016-05-04 15:20:00,2,7442,77,0.07,2,2,0,2,6377,8694,710,7371,77,77,0,77,0.05,0.15,0.03,0.05
2016-05-04 15:30:00,2,6591,77,0.11,2,2,0,2,6249,7109,286,6542,77,77,0,77,0.05,0.25,0.06,0.10
2016-05-04 15:40:00,2,5283,77,0.23,2,2,0,2,3853,6059,771,5638,77,77,0,77,0.05,0.55,0.16,0.17
2016-05-04 15:50:00,2,3526,71,0.72,2,2,0,2,2972,4093,358,3521,71,71,0,71,0.40,1.15,0.26,0.65
2016-05-04 16:00:00,2,2225,71,1.67,2,2,0,2,1432,3251,683,2078,71,71,0,71,0.75,2.90,0.70,1.70
2016-05-04 16:10:00,2,1540,71,2.61,2,2,0,2,1301,1721,166,1576,71,71,0,71,1.85,3.80,0.62,2.62
2016-05-04 16:20:00,2,1706,71,1.77,2,2,0,2,1447,1895,132,1730,71,71,0,71,1.00,2.80,0.55,1.68
2016-05-04 16:30:00,2,4286,71,0.46,2,2,0,2,2115,7271,1611,4254,71,71,0,71,0.20,1.20,0.29,0.38
2016-05-04 16:40:00,2,8545,75,0.17,2,2,0,2,6093,11555,1792,8066,71,77,3,77,0.05,0.30,0.09,0.17
2016-05-04 16:50:00,2,18025,77,0.01,2,2,0,2,12432,22480,2917,17720,77,78,0,77,0.00,0.05,0.02,0.00
2016-05-04 17:00:00,2,24935,23,0.00,2,2,0,2,22393,28293,1535,25150,0,78,36,0,0.00,0.00,0.00,0.00
2016-05-04 17:10:00,2,32482,0,0.00,2,2,0,2,27637,38950,3220,32710,0,0,0,0,0.00,0.00,0.00,0.00
2016-05-04 17:20:00,2,30762,0,0.00,2,2,0,2,28059,35966,2395,30096,0,0,0,0,0.00,0.00,0.00,0.00
2016-05-04 17:30:00,2,33259,0,0.00,2,2,0,2,25492,44920,6000,31031,0,0,0,0,0.00,0.00,0.00,0.00
2016-05-04 17:40:00,2,35274,0,0.00,2,2,0,2,28971,42656,4879,34216,0,0,0,0,0.00,0.00,0.00,0.00
2016-05-04 17:50:00,2,37640,0,0.00,2,2,0,2,32348,42708,3521,37137,0,0,0,0,0.00,0.00,0.00,0.00
2016-05-04 18:00:00,2,37693,0,0.00,2,2,0,2,30935,42779,3648,36589,0,0,0,0,0.00,0.00,0.00,0.00
2016-05-04 18:10:00,2,45530,0,0.00,2,2,0,2,39811,50000,3815,45401,0,0,0,0,0.00,0.00,0.00,0.00
2016-05-04 18:20:00,2,47808,0,0.00,2,2,0,2,42567,50000,2137,47746,0,0,0,0,0.00,0.00,0.00,0.00
2016-05-04 18:30:00,2,49068,0,0.00,2,2,0,2,45445,50000,1554,50000,0,0,0,0,0.00,0.00,0.00,0.00
2016-05-04 18:40:00,2,48742,0,0.00,2,2,0,2,44394,50000,1990,50000,0,0,0,0,0.00,0.00,0.00,0.00
2016-05-04 18:50:00,2,49496,0,0.00,2,2,0,2,47779,50000,700,49950,0,0,0,0,0.00,0.00,0.00,0.00
2016-05-04 19:00:00,2,47087,0,0.00,2,2,0,2,41651,50000,2984,47940,0,0,0,0,0.00,0.00,0.00,0.00
2016-05-04 19:10:00,2,48659,0,0.00,2,2,0,2,45443,50000,1810,50000,0,0,0,0,0.00,0.00,0.00,0.00
2016-05-04 19:20:00,2,47671,0,0.00,2,2,0,2,41212,50000,2999,48569,0,0,0,0,0.00,0.00,0.00,0.00
2016-05-04 19:30:00,2,45725,0,0.00,2,2,0,2,38188,50000,4510,47928,0,0,0,0,0.00,0.00,0.00,0.00
2016-05-04 19:40:00,2,48040,0,0.00,2,2,0,2,41076,50000,2718,49194,0,0,0,0,0.00,0.00,0.00,0.00
2016-05-04 19:50:00,2,41372,0,0.00,2,2,0,2,37675,45572,2644,41836,0,0,0,0,0.00,0.00,0.00,0.00
2016-05-04 20:00:00,2,45194,0,0.00,2,2,0,2,36185,50000,4354,46162,0,0,0,0,0.00,0.00,0.00,0.00
2016-05-04 20:10:00,2,31445,36,0.02,2,2,0,2,20459,39336,5243,30720,0,71,36,36,0.00,0.10,0.03,0.00
2016-05-04 20:20:00,2,36611,76,0.01,2,2,0,2,30064,44331,4042,37272,71,78,3,77,0.00,0.10,0.03,0.00
2016-05-04 20:30:00,2,41500,51,0.03,2,2,0,2,25768,50000,7788,43917,0,78,34,71,0.00,0.15,0.06,0.00
2016-05-04 20:40:00,2,43644,0,0.00,2,2,0,2,38189,50000,3805,43762,0,0,0,0,0.00,0.00,0.00,0.00
2016-05-04 20:50:00,2,46156,0,0.00,2,2,0,2,39835,50000,2912,47300,0,0,0,0,0.00,0.00,0.00,0.00
2016-05-04 21:00:00,2,42403,0,0.00,2,2,0,2,33414,50000,4813,41968,0,0,0,0,0.00,0.00,0.00,0.00
2016-05-04 21:10:00,2,39458,0,0.00,2,2,0,2,30343,47250,4497,38553,0,0,0,0,0.00,0.00,0.00,0.00
2016-05-04 21:20:00,2,42357,0,0.00,2,2,0,2,30714,50000,6819,45874,0,0,0,0,0.00,0.00,0.00,0.00
2016-05-04 21:30:00,2,37639,0,0.00,2,2,0,2,30148,48017,6556,36080,0,0,0,0,0.00,0.00,0.00,0.00
2016-05-04 21:40:00,2,33061,0,0.00,2,2,0,2,25155,42555,5197,33511,0,0,0,0,0.00,0.00,0.00,0.00
2016-05-04 21:50:00,2,38498,0,0.00,2,2,0,2,28380,50000,7202,35212,0,0,0,0,0.00,0.00,0.00,0.00
2016-05-04 22:00:00,2,39294,0,0.00,2,2,0,2,29336,47947,5785,39063,0,0,0,0,0.00,0.00,0.00,0.00
2016-05-04 22:10:00,2,30155,0,0.00,2,2,0,2,22587,42139,5135,29579,0,0,0,0,0.00,0.00,0.00,0.00
2016-05-04 22:20:00,2,31848,0,0.00,2,2,0,2,18726,45392,7723,30996,0,0,0,0,0.00,0.00,0.00,0.00
2016-05-04 22:30:00,2,32882,0,0.00,2,2,0,2,24938,43741,6502,31732,0,0,0,0,0.00,0.00,0.00,0.00
2016-05-04 22:40:00,2,38976,0,0.00,2,2,0,2,33314,47034,4443,37726,0,0,0,0,0.00,0.00,0.00,0.00
2016-05-04 22:50:00,2,33556,0,0.00,2,2,0,2,19600,42912,5807,34844,0,0,0,0,0.00,0.00,0.00,0.00
2016-05-04 23:00:00,2,38930,0,0.00,2,2,0,2,31953,50000,5864,36804,0,0,0,0,0.00,0.00,0.00,0.00
2016-05-04 23:10:00,2,38111,0,0.00,2,2,0,2,28583,50000,7463,36278,0,0,0,0,0.00,0.00,0.00,0.00
2016-05-04 23:20:00,2,39034,0,0.00,2,2,0,2,29128,50000,6219,39060,0,0,0,0,0.00,0.00,0.00,0.00
2016-05-04 23:30:00,2,36292,0,0.00,2,2,0,2,28764,45725,5896,33890,0,0,0,0,0.00,0.00,0.00,0.00
2016-05-04 23:40:00,2,35627,0,0.00,2,2,0,2,18343,49529,9826,36821,0,0,0,0,0.00,0.00,0.00,0.00
2016-05-04 23:50:00,2,37575,0,0.00,2,2,0,2,27030,50000,7588,39010,0,0,0,0,0.00,0.00,0.00,0.00
